Natchitoches, LA
on Tuesday, May 15, 2012

Tuesday
Previous Day Next Day
Daily Summary
 ActualAverage (KAEX)Record (KAEX)
Temperature
Mean Temperature - 74 °F  
Max Temperature 87 °F 85 °F 94 °F (1899)
Min Temperature 60 °F 63 °F 45 °F (1907)
Cooling Degree Days 8 9  
Month to date cooling degree days 115  
Year to date cooling degree days 274  
Growing Degree Days24 (Base - )  
Moisture
Dew Point 63 °F   
Average Humidity 77    
Maximum Humidity 100    
Minimum Humidity 40    
Precipitation
Precipitation 0.00 in 0.15 in 3.20 in (1928)
Month to date precipitation 2.09  
Year to date precipitation 21.37  
Wind
Wind Speed 2 mph   
Max Wind Speed 13 mph   
Max Gust Speed 18 mph   
Visibility 8 miles   
Events Rain   

Key: T is trace of precipitation, MM is missing value
Source: NWS Daily Summary
Time(CDT)TemperatureDew PointHumidity Pressure Visibility Wind DirectionWind SpeedGust SpeedPrecipitationEvents Conditions
12:15 AM 64.4 °F 64.4 °F 100% 30.01 in 7.0 miles Calm Calm - N/A   Clear
12:35 AM 62.6 °F 62.6 °F 100% 30.01 in 7.0 miles Calm Calm - N/A   Clear
12:55 AM 62.6 °F 62.6 °F 100% 30.02 in 7.0 miles West 3.5 mph - N/A   Clear
1:15 AM 62.6 °F 62.6 °F 100% 30.02 in 7.0 miles Calm Calm - N/A   Clear
1:35 AM 62.6 °F 62.6 °F 100% 30.01 in 7.0 miles West 4.6 mph - N/A   Scattered Clouds
1:55 AM 62.6 °F 62.6 °F 100% 30.00 in 5.0 miles Calm Calm - N/A   Clear
2:15 AM 62.6 °F 62.6 °F 100% 30.00 in 7.0 miles Calm Calm - N/A   Clear
2:35 AM 62.6 °F 62.6 °F 100% 30.00 in 5.0 miles Calm Calm - N/A   Clear
2:55 AM 62.6 °F 62.6 °F 100% 29.99 in 7.0 miles Calm Calm - N/A   Clear
3:15 AM 62.6 °F 62.6 °F 100% 29.99 in 7.0 miles Calm Calm - N/A   Clear
3:35 AM 62.6 °F 62.6 °F 100% 29.99 in 5.0 miles Calm Calm - N/A   Clear
3:55 AM 60.8 °F 60.8 °F 100% 30.00 in 4.0 miles Calm Calm - N/A   Clear
4:15 AM 60.8 °F 60.8 °F 100% 30.00 in 5.0 miles Calm Calm - N/A   Clear
4:35 AM 60.8 °F 60.8 °F 100% 30.01 in 5.0 miles Calm Calm - N/A   Clear
4:55 AM 60.8 °F 60.8 °F 100% 30.01 in 4.0 miles Calm Calm - N/A   Clear
5:15 AM 60.8 °F 60.8 °F 100% 30.00 in 4.0 miles Calm Calm - N/A   Clear
5:35 AM 60.8 °F 60.8 °F 100% 30.01 in 4.0 miles Calm Calm - N/A   Clear
5:55 AM 60.8 °F 60.8 °F 100% 30.01 in 3.0 miles Calm Calm - N/A   Clear
6:15 AM 60.8 °F 60.8 °F 100% 30.02 in 3.0 miles Calm Calm - N/A   Clear
6:35 AM 60.8 °F 60.8 °F 100% 30.03 in 3.0 miles Calm Calm - N/A   Clear
6:55 AM 60.8 °F 60.8 °F 100% 30.03 in 3.0 miles Calm Calm - N/A   Clear
7:15 AM 62.6 °F 62.6 °F 100% 30.03 in 5.0 miles Calm Calm - N/A   Clear
7:35 AM 66.2 °F 64.4 °F 94% 30.03 in 7.0 miles Calm Calm - N/A   Clear
7:55 AM 69.8 °F 68.0 °F 94% 30.03 in 7.0 miles Calm Calm - N/A   Clear
8:15 AM 73.4 °F 68.0 °F 83% 30.03 in 10.0 miles Calm Calm - N/A   Clear
8:35 AM 73.4 °F 66.2 °F 78% 30.04 in 10.0 miles Calm Calm - N/A   Clear
8:55 AM 77.0 °F 66.2 °F 69% 30.04 in 10.0 miles Calm Calm - N/A   Clear
9:15 AM 78.8 °F 66.2 °F 65% 30.05 in 10.0 miles SE 3.5 mph - N/A   Clear
9:35 AM 78.8 °F 64.4 °F 61% 30.06 in 10.0 miles East 4.6 mph - N/A   Clear
9:55 AM 80.6 °F 64.4 °F 58% 30.06 in 10.0 miles East 4.6 mph - N/A   Clear
10:15 AM 80.6 °F 64.4 °F 58% 30.06 in 10.0 miles ESE 4.6 mph - N/A   Clear
10:35 AM 82.4 °F 64.4 °F 54% 30.06 in 10.0 miles Calm Calm - N/A   Clear
10:55 AM 82.4 °F 62.6 °F 51% 30.06 in 7.0 miles East 3.5 mph - N/A   Clear
11:15 AM 84.2 °F 62.6 °F 48% 30.06 in 10.0 miles NE 3.5 mph - N/A   Clear
11:35 AM 86.0 °F 60.8 °F 43% 30.06 in 10.0 miles Calm Calm - N/A   Clear
11:55 AM 87.8 °F 62.6 °F 43% 30.05 in 10.0 miles East 3.5 mph - N/A   Clear
12:15 PM 87.8 °F 62.6 °F 43% 30.04 in 10.0 miles Calm Calm - N/A   Mostly Cloudy
12:35 PM 86.0 °F 62.6 °F 45% 30.04 in 10.0 miles NNW 3.5 mph - N/A   Scattered Clouds
12:55 PM 86.0 °F 60.8 °F 43% 30.04 in 10.0 miles West 5.8 mph - N/A   Mostly Cloudy
1:15 PM 84.2 °F 60.8 °F 45% 30.03 in 10.0 miles Calm Calm - N/A   Mostly Cloudy
1:35 PM 87.8 °F 62.6 °F 43% 30.03 in 10.0 miles NE 3.5 mph - N/A   Scattered Clouds
1:55 PM 87.8 °F 60.8 °F 40% 30.02 in 10.0 miles Calm Calm - N/A   Scattered Clouds
2:15 PM 87.8 °F 64.4 °F 46% 30.01 in 10.0 miles North 5.8 mph - N/A   Scattered Clouds
2:35 PM 86.0 °F 62.6 °F 45% 30.01 in 10.0 miles NW 4.6 mph - N/A   Scattered Clouds
2:55 PM 86.0 °F 62.6 °F 45% 30.01 in 10.0 miles NNW 4.6 mph - N/A   Scattered Clouds
3:15 PM 86.0 °F 62.6 °F 45% 30.00 in 10.0 miles Calm Calm - N/A   Scattered Clouds
3:35 PM 84.2 °F 62.6 °F 48% 29.99 in 10.0 miles North 5.8 mph - N/A   Scattered Clouds
3:55 PM 84.2 °F 64.4 °F 51% 29.99 in 10.0 miles NNE 4.6 mph - N/A   Scattered Clouds
4:15 PM 84.2 °F 64.4 °F 51% 29.99 in 10.0 miles North 5.8 mph - N/A   Scattered Clouds
4:35 PM 82.4 °F 62.6 °F 51% 29.98 in 10.0 miles North 3.5 mph - N/A   Scattered Clouds
4:55 PM 80.6 °F 64.4 °F 58% 29.98 in 10.0 miles North 4.6 mph - N/A   Scattered Clouds
5:15 PM 78.8 °F 62.6 °F 57% 29.98 in 10.0 miles NNW 5.8 mph - N/A   Scattered Clouds
5:35 PM 77.0 °F 64.4 °F 65% 29.99 in 10.0 miles West 12.7 mph - N/A   Mostly Cloudy
6:15 PM 73.4 °F 64.4 °F 73% 30.01 in 10.0 miles WSW 8.1 mph - N/A   Overcast
6:35 PM 69.8 °F 66.2 °F 88% 30.02 in 10.0 miles WSW 12.7 mph 17.3 mph N/A   Overcast
6:55 PM 69.8 °F 66.2 °F 88% 30.02 in 10.0 miles West 9.2 mph 17.3 mph N/A Rain Light Rain
7:15 PM 68.0 °F 66.2 °F 94% 30.02 in 10.0 miles WSW 12.7 mph 18.4 mph N/A   Scattered Clouds
7:35 PM 68.0 °F 64.4 °F 88% 30.02 in 10.0 miles WSW 9.2 mph - N/A   Mostly Cloudy
7:55 PM 68.0 °F 64.4 °F 88% 30.03 in 10.0 miles WSW 9.2 mph - N/A   Scattered Clouds
8:15 PM 68.0 °F 64.4 °F 88% 30.03 in 10.0 miles West 6.9 mph - N/A   Scattered Clouds
8:35 PM 68.0 °F 64.4 °F 88% 30.04 in 10.0 miles West 4.6 mph - N/A   Clear
8:55 PM 68.0 °F 64.4 °F 88% 30.03 in 10.0 miles West 5.8 mph - N/A   Clear
9:15 PM 68.0 °F 64.4 °F 88% 30.03 in 10.0 miles WNW 4.6 mph - N/A   Scattered Clouds
9:35 PM 68.0 °F 64.4 °F 88% 30.04 in 10.0 miles NW 8.1 mph - N/A   Clear
9:55 PM 68.0 °F 64.4 °F 88% 30.04 in 10.0 miles NW 8.1 mph - N/A   Scattered Clouds
10:15 PM 68.0 °F 64.4 °F 88% 30.05 in 10.0 miles NW 6.9 mph - N/A   Mostly Cloudy
10:35 PM 68.0 °F 64.4 °F 88% 30.05 in 10.0 miles NW 3.5 mph - N/A   Overcast
10:55 PM 68.0 °F 64.4 °F 88% 30.06 in 10.0 miles Calm Calm - N/A   Mostly Cloudy
11:15 PM 68.0 °F 64.4 °F 88% 30.06 in 10.0 miles NW 5.8 mph - N/A   Overcast
11:35 PM 68.0 °F 64.4 °F 88% 30.07 in 10.0 miles Calm Calm - N/A   Overcast
11:55 PM 68.0 °F 64.4 °F 88% 30.07 in 10.0 miles NW 4.6 mph - N/A Rain Light Rain

Astronomy

Sunrise: 06:15 AM (CDT)
Moon Rise: 03:00 AM (CDT) on 5 / 15
Sunset: 08:02 PM (CDT)
Moon Set: 03:36 PM (CDT) on 5 / 15
Current Moon Phase
May. 15
Upcoming Moon Phases
May. 20 May. 28 Jun. 04 Jun. 11

Powered by Weather Underground, Inc.